TimeEDT,TemperatureF,Dew PointF,Humidity,Sea Level PressureIn,VisibilityMPH,Wind Direction,Wind SpeedMPH,Gust SpeedMPH,PrecipitationIn,Events,Conditions,WindDirDegrees,DateUTC
12:54 AM,57.0,50.0,77,30.18,10.0,Calm,Calm,-,N/A,,Clear,0,2012-09-11 04:54:00
1:54 AM,55.0,51.1,86,30.19,10.0,Calm,Calm,-,N/A,,Clear,0,2012-09-11 05:54:00
2:54 AM,55.0,51.1,86,30.20,10.0,Calm,Calm,-,N/A,,Clear,0,2012-09-11 06:54:00
3:54 AM,54.0,50.0,86,30.21,10.0,Calm,Calm,-,N/A,,Clear,0,2012-09-11 07:54:00
4:54 AM,52.0,48.9,89,30.22,10.0,Calm,Calm,-,N/A,,Clear,0,2012-09-11 08:54:00
5:54 AM,52.0,48.9,89,30.24,10.0,Calm,Calm,-,N/A,,Clear,0,2012-09-11 09:54:00
6:54 AM,52.0,48.0,86,30.27,10.0,Calm,Calm,-,N/A,,Clear,0,2012-09-11 10:54:00
7:54 AM,55.0,50.0,83,30.29,10.0,Calm,Calm,-,N/A,,Clear,0,2012-09-11 11:54:00
8:54 AM,62.1,50.0,65,30.30,10.0,Calm,Calm,-,N/A,,Clear,0,2012-09-11 12:54:00
9:54 AM,68.0,45.0,43,30.31,10.0,Calm,Calm,-,N/A,,Partly Cloudy,0,2012-09-11 13:54:00
10:54 AM,72.0,44.1,37,30.31,10.0,Calm,Calm,-,N/A,,Partly Cloudy,0,2012-09-11 14:54:00
11:54 AM,72.0,43.0,35,30.31,10.0,Variable,5.8,-,N/A,,Partly Cloudy,0,2012-09-11 15:54:00
12:54 PM,73.9,42.1,32,30.30,10.0,Calm,Calm,-,N/A,,Scattered Clouds,0,2012-09-11 16:54:00
1:54 PM,73.9,43.0,33,30.28,10.0,ESE,4.6,-,N/A,,Scattered Clouds,110,2012-09-11 17:54:00
2:54 PM,75.0,42.1,31,30.25,10.0,Calm,Calm,-,N/A,,Scattered Clouds,0,2012-09-11 18:54:00
3:54 PM,77.0,41.0,28,30.24,10.0,Variable,4.6,-,N/A,,Scattered Clouds,0,2012-09-11 19:54:00
4:54 PM,78.1,42.1,28,30.24,10.0,Calm,Calm,-,N/A,,Scattered Clouds,0,2012-09-11 20:54:00
5:54 PM,77.0,45.0,32,30.25,9.0,Variable,3.5,-,N/A,,Scattered Clouds,0,2012-09-11 21:54:00
6:54 PM,73.0,48.9,42,30.25,10.0,Variable,4.6,-,N/A,,Scattered Clouds,0,2012-09-11 22:54:00
7:54 PM,66.2,51.8,60,30.27,10.0,South,4.6,-,N/A,,Scattered Clouds,170,2012-09-11 23:54:00
8:54 PM,64.9,51.1,61,30.28,10.0,Calm,Calm,-,N/A,,Partly Cloudy,0,2012-09-12 00:54:00
9:54 PM,62.1,54.0,75,30.29,10.0,Calm,Calm,-,N/A,,Partly Cloudy,0,2012-09-12 01:54:00
10:54 PM,60.1,53.1,78,30.30,10.0,Calm,Calm,-,N/A,,Partly Cloudy,0,2012-09-12 02:54:00
11:54 PM,59.0,53.1,81,30.30,10.0,Calm,Calm,-,N/A,,Clear,0,2012-09-12 03:54:00